This is the latest recevied weather packets stored in our database for station/object HB9TVK-13. If no packets are shown the sender has not sent any weather packets the latest 10 day(s).
| Time | Temp. | Humidity | Pressure | Rain* | Wind** | Luminosity | Snow |
|---|---|---|---|---|---|---|---|
| 1777658836 | 18.33° C | 42% | 1023.8 hPa | 0 mm | - | - | - |
| 1777658236 | 18.89° C | 42% | 1023.8 hPa | 0 mm | - | - | - |
| 1777657637 | 19.44° C | 42% | 1023.8 hPa | 0 mm | - | - | - |
| 1777657038 | 19.44° C | 42% | 1023.7 hPa | 0 mm | - | - | - |
| 1777656435 | 20° C | 43% | 1023.7 hPa | 0 mm | - | - | - |
| 1777655835 | 20° C | 43% | 1023.7 hPa | 0 mm | - | - | - |
| 1777655236 | 20.56° C | 44% | 1023.7 hPa | 0 mm | - | - | - |
| 1777654636 | 20.56° C | 43% | 1023.7 hPa | 0 mm | - | - | - |
| 1777654037 | 20.56° C | 42% | 1023.7 hPa | 0 mm | - | - | - |
| 1777653437 | 21.11° C | 40% | 1023.8 hPa | 0 mm | - | - | - |
| 1777652838 | 21.11° C | 39% | 1023.9 hPa | 0 mm | - | - | - |
| 1777652235 | 21.11° C | 39% | 1024 hPa | 0 mm | - | - | - |
| 1777651036 | 21.11° C | 38% | 1024 hPa | 0 mm | - | - | - |
| 1777650437 | 21.11° C | 37% | 1024 hPa | 0 mm | - | - | - |
| 1777649837 | 21.11° C | 38% | 1024.1 hPa | 0 mm | - | - | - |
| 1777649237 | 21.11° C | 38% | 1024.2 hPa | 0 mm | - | - | - |
| 1777648638 | 21.11° C | 39% | 1024.3 hPa | 0 mm | - | - | - |
| 1777648035 | 21.11° C | 42% | 1024.3 hPa | 0 mm | - | - | - |
| 1777647436 | 20.56° C | 42% | 1024.3 hPa | 0 mm | - | - | - |
| 1777646237 | 20.56° C | 44% | 1024.5 hPa | 0 mm | - | - | - |
| 1777645637 | 20° C | 43% | 1024.5 hPa | 0 mm | - | - | - |
| 1777645037 | 20° C | 43% | 1024.6 hPa | 0 mm | - | - | - |
| 1777644438 | 20° C | 43% | 1024.7 hPa | 0 mm | - | - | - |
| 1777643835 | 20° C | 41% | 1024.7 hPa | 0 mm | - | - | - |
| 1777643236 | 20° C | 43% | 1024.8 hPa | 0 mm | - | - | - |
* Rain latest hour (hover to see other rain measurements)
** Current wind speed in m/s (hover to see current wind gust speed)